Regional Weather Roundup
Issued by NWS Jackson, KY

Home | Current Version | Previous Version | Graphics & Text | Print | Product List | Glossary On
Versions: 1 2 3 4 5 6 7 8 9 10 11 12 13 14 15 16 17 18 19 20 21 22 23 24 25 26 27 28 29 30 31 32 33 34 35 36 37 38 39 40 41 42 43 44 45 46 47 48 49 50
000
ASUS43 KJKL 290419
RWRJKL

EAST KENTUCKY HOURLY WEATHER ROUNDUP
NATIONAL WEATHER SERVICE JACKSON KY
1100 PM EST SUN DEC 28 2014

NOTE: "FAIR" INDICATES FEW OR NO CLOUDS BELOW 12,000 FEET WITH
NO SIGNIFICANT WEATHER AND/OR OBSTRUCTIONS TO VISIBILITY.

* THESE REPORTS ARE NOT UNDER NWS QUALITY CONTROL AND MAY NOT
  REPORT WEATHER SUCH AS PRECIPITATION AND FOG.

KYZ079-080-083-085-087-088-110-112-115-119-120-290500
...EASTERN KENTUCKY...

CITY           SKY/WX    TMP DP  RH WIND       PRES   REMARKS
JACKSON        CLOUDY    36  35  96 N7        30.14S FOG     WCI  30
LONDON         CLOUDY    40  36  86 N7        30.14S
SOMERSET*      CLOUDY    36  36 100 NE5       30.16F WCI  32
MONTICELLO*    CLOUDY    40  39  96 N7        30.18R FOG
MIDDLESBORO*   DRIZZLE   43  42  97 CALM      30.13R
HARLAN APT*    CLOUDY    43  43 100 CALM      30.11F
BLACK MTN*       N/A     39  39 100 S5          N/A
PIKEVILLE APT* DRIZZLE   37  37 100 N5        30.12F WCI  34
BIG SANDY*     CLOUDY    38  38  99 N5        30.15S WCI  34
MOREHEAD APT*  CLOUDY    34  32  93 CALM      30.19S FOG
ASHLAND*       CLEAR    N/A N/A N/A CALM      30.17S
$$

KYZ035-036-041-042-044-050-067-078-099-290500
...CENTRAL KENTUCKY...

CITY           SKY/WX    TMP DP  RH WIND       PRES   REMARKS
MT STERLING*   CLOUDY    34  32  93 NE3       30.18S
FLEMING/MASON* PTCLDY    32  32 100 CALM      30.20R FOG
DANVILLE*      FOG       34  34 100 NE5       30.18S VSB 1/2 WCI  30
RICHMOND*      CLOUDY    34  34 100 NE5       30.15F WCI  30
LEXINGTON      CLOUDY    33  30  88 N6        30.18S WCI  28
FRANKFORT      CLOUDY    33  30  88 CALM      30.18R
$$

KYZ091>093-OHZ055-061-077-WVZ005-015-034-035-042-290500
...SOUTHERN OHIO/WEST VIRGINIA...

CITY           SKY/WX    TMP DP  RH WIND       PRES   REMARKS
COVINGTON      CLOUDY    33  26  75 N6        30.20R WCI  28
COLUMBUS       MOCLDY    32  26  78 N6        30.19R WCI  26
DAYTON         MOCLDY    29  26  89 N5        30.20R WCI  24
WILMINGTON     MOCLDY    31  27  85 N7        30.17S WCI  24
HUNTINGTON     CLOUDY    36  35  96 CALM      30.17S
CHARLESTON     LGT RAIN  37  33  85 VRB5      30.16S WCI  33
PINEVILLE*     LGT RAIN  44  44 100 MISG      30.15F
BECKLEY        LGT RAIN  39  37  92 CALM      30.09F
BLUEFIELD      LGT RAIN  44  41  89 VRB5      30.08F VSB 1/2
$$

VAZ002-007-008-TNZ017-027-036-066-071-290500
...SOUTHWEST VIRGINIA/EAST TENNESSEE...

CITY           SKY/WX    TMP DP  RH WIND       PRES   REMARKS
WISE*          LGT RAIN  41  41 100 NE3       30.09F VSB 1/4
JONESVILLE*    LGT RAIN  46  46 100 CALM      30.12S
ABINGDON*      FOG       48  48 100 CALM      30.09F VSB 1/2
BRISTOL        FOG       48  48 100 CALM      30.10F VSB 1/4
KNOXVILLE      LGT RAIN  50  49  96 NE5       30.09F FOG
OAK RIDGE      LGT RAIN  47  45  93 CALM      30.11F
CROSSVILLE     LGT RAIN  43  40  89 N6        30.10S
NASHVILLE      CLOUDY    37  35  92 N8        30.18S WCI  31
$$

...KEY TO REMARKS...
VSB - VISIBILITY IN MILES
WCI - WIND CHILL INDEX
HX  - HEAT INDEX

$$



USA.gov is the U.S. government's official web portal to all federal, state and local government web resources and services.